Notices

What's New in latest Release from April 7th, 2021:

- Updated Glossary, including Speed of Maximum Gust, and Total Hourly Precipitation

- Updated national and regional climate services offices contacts and prices information

- Addition of station inventory lists for 1981-2010, 1971-2000, and 1961-1990 Normals.

If you haven't already, please take our survey and provide feedback about our website: https://eccc.sondage-survey.ca/f/LanguageSelection.aspx?s=442ca660-fcf1-47c0-95a9-59707d6fd709

Hourly Data Report for April 15, 2017

KUGAARUK CLIMATE
NUNAVUT

68°32'15.060" N
89°47'47.020" W
15.80 m
2303094
71407
NBB

Download Data

Hourly Data (April 2017)
Hourly Data Report for April 15, 2017
TIME
LST
Temp Definition
°C
Dew Point Definition
°C
Rel Hum Definition
%
Precip. Amount Definition
mm

Wind Dir Definition
10's deg

Wind Spd Definition
km/h
Visibility Definition
km
Stn Press Definition
kPa
Hmdx Definition


Wind Chill Definition


Weather Definition


00:00 -19.3 -21.5 82 0.0 28 17   102.69   -29 LegendNANA
01:00 -20.7 -23.1 81 0.0 26 10   102.70   -28 LegendNANA
02:00 -21.7 -24.2 80 0.0 26 11   102.69   -30 LegendNANA
03:00 -21.5 -24.2 79 0.0 27 21   102.65   -33 LegendNANA
04:00 -22.7 -25.5 78 0.0 26 15   102.66   -32 LegendNANA
05:00 -23.6 -26.5 77 0.2 24 20   102.66   -35 LegendNANA
06:00 -23.2 -26.2 76 0.0 24 20   102.66   -35 LegendNANA
07:00 -22.3 -25.4 76 0.0 25 18   102.67   -33 LegendNANA
08:00 -21.6 -24.8 75 0.0 24 16   102.68   -31 LegendNANA
09:00 -20.9 -24.1 75 0.0 24 18   102.67   -31 LegendNANA
10:00 -20.1 -23.3 76 0.0 23 19   102.68   -30 LegendNANA
11:00 -19.5 -22.7 76 0.0 24 22   102.68   -30 LegendNANA
12:00 -19.4 -22.7 75 0.0 23 23   102.70   -30 LegendNANA
13:00 -18.7 -21.9 75 0.0 23 19   102.70   -29 LegendNANA
14:00 -18.4 -21.9 74 0.0 24 13   102.71   -26 LegendNANA
15:00 -18.6 -21.8 75 0.0 22 13   102.73   -27 LegendNANA
16:00 -19.1 -22.5 74 0.0 28 16   102.75   -28 LegendNANA
17:00 -19.6 -23.1 73 0.0 28 13   102.76   -28 LegendNANA
18:00 -20.2 -23.6 74 0.0 28 16   102.76   -30 LegendNANA
19:00 -20.8 -24.3 73 0.0 28 17   102.77   -31 LegendNANA
20:00 -22.8 -26.2 74 0.0 25 11   102.75   -31 LegendNANA
21:00 -23.8 -26.9 76 0.0 26 7   102.71   -30 LegendNANA
22:00 -24.3 -27.2 77 0.0 27 8   102.69   -31 LegendNANA
23:00 -25.3 -28.4 76 0.0 27 11   102.67   -34 LegendNANA

Notes on Data Quality.

Legend

  • E = Estimated
  • M = Missing
  • NA = Not Available*
  • [empty] = Indicates an unobserved value
Date modified: